Findlay, OH

2:36 PM EDT on October 14, 2019 (GMT -0400)
Findlay

Weather History for KFDY - September, 2019

Change the Weather History Date:

Wednesday, September 18, 2019

  Actual Average Record
Temperature  
Mean Temperature 72 °F -  
Max Temperature 84 °F 73 °F 94 °F (1955)
Min Temperature 59 °F 53 °F 35 °F (1959)
Cooling Degree Days 6    
Growing Degree Days 22 (Base 50)    
Moisture  
Dew Point 55 °F    
Average Humidity 61    
Maximum Humidity 87    
Minimum Humidity 33    
Precipitation  
Precipitation 0.00 in - - ()
Sea Level Pressure  
Sea Level Pressure 30.13 in    
Wind  
Wind Speed 7 mph (ENE)    
Max Wind Speed 13 mph    
Max Gust Speed -    
Visibility 10 miles    
Events      
Averages and records for this station are not official NWS values.
T = Trace of Precipitation, MM = Missing Value Source: NWS Daily Summary

Daily Weather History Graph

Daily Weather History Graph

Search for Another Location

Airport or City:

Astronomy

Sep. 18, 2019 Rise Set
Actual Time 7:17 AM EDT 7:39 PM EDT
Civil Twilight 6:50 AM EDT 8:06 PM EDT
Nautical Twilight 6:18 AM EDT 8:38 PM EDT
Astronomical Twilight 5:44 AM EDT 9:11 PM EDT
Moon 10:10 PM EDT (9/18) 11:22 AM EDT (9/18)
Length of Visible Light 13h 16m
Length of Day
12h 21m
Waning Gibbous, 82% of the Moon is Illuminated
Sep 18
Waning Gibbous
Sep 21
Last Quarter
Sep 28
New
Oct 5
First Quarter
Oct 13
Full

Hourly Weather History & Observations

Time (EDT) Temp. Heat Index Dew Point Humidity Pressure Visibility Wind Dir Wind Speed Gust Speed Precip Events Conditions
12:53 AM 64.9 °F - 57.9 °F 78% 30.13 in 10.0 mi ENE 8.1 mph - N/A   Clear
1:53 AM 64.0 °F - 57.0 °F 78% 30.14 in 10.0 mi East 5.8 mph - N/A   Clear
2:53 AM 63.0 °F - 55.9 °F 78% 30.13 in 10.0 mi East 8.1 mph - N/A   Clear
3:53 AM 61.0 °F - 55.9 °F 83% 30.13 in 10.0 mi East 4.6 mph - N/A   Clear
4:53 AM 61.0 °F - 55.9 °F 83% 30.13 in 10.0 mi NE 5.8 mph - N/A   Clear
5:53 AM 59.0 °F - 55.0 °F 87% 30.13 in 10.0 mi East 3.5 mph - N/A   Clear
6:53 AM 60.1 °F - 55.0 °F 83% 30.14 in 10.0 mi ENE 5.8 mph - N/A   Clear
7:53 AM 60.1 °F - 55.0 °F 83% 30.14 in 10.0 mi ENE 4.6 mph - N/A   Clear
8:53 AM 64.9 °F - 55.0 °F 70% 30.15 in 10.0 mi East 6.9 mph - N/A   Clear
9:53 AM 69.1 °F - 55.9 °F 63% 30.15 in 10.0 mi ESE 8.1 mph - N/A   Clear
10:53 AM 73.9 °F - 57.0 °F 55% 30.15 in 10.0 mi East 6.9 mph - N/A   Clear
11:53 AM 79.0 °F - 57.0 °F 47% 30.15 in 10.0 mi East 6.9 mph - N/A   Clear
12:53 PM 81.0 °F 80.4 °F 53.1 °F 38% 30.15 in 10.0 mi ESE 11.5 mph - N/A   Clear
1:53 PM 82.9 °F 81.8 °F 53.1 °F 36% 30.15 in 10.0 mi East 9.2 mph - N/A   Clear
2:53 PM 82.9 °F - 52.0 °F 34% 30.14 in 10.0 mi NE 5.8 mph - N/A   Clear
3:53 PM 84.0 °F - 52.0 °F 33% 30.13 in 10.0 mi NE 9.2 mph - N/A   Clear
4:53 PM 82.9 °F - 51.1 °F 33% 30.12 in 10.0 mi East 10.4 mph - N/A   Clear
5:53 PM 81.0 °F 80.4 °F 53.1 °F 38% 30.11 in 10.0 mi East 9.2 mph - N/A   Clear
6:53 PM 77.0 °F - 59.0 °F 54% 30.11 in 10.0 mi ENE 12.7 mph - N/A   Clear
7:53 PM 73.9 °F - 57.0 °F 55% 30.12 in 10.0 mi ENE 10.4 mph - N/A   Clear
8:53 PM 70.0 °F - 55.9 °F 61% 30.13 in 10.0 mi ENE 8.1 mph - N/A   Clear
9:53 PM 69.1 °F - 57.0 °F 65% 30.14 in 10.0 mi ENE 9.2 mph - N/A   Clear
10:53 PM 66.9 °F - 55.9 °F 68% 30.14 in 10.0 mi East 9.2 mph - N/A   Clear
11:53 PM 66.9 °F - 54.0 °F 63% 30.13 in 10.0 mi East 9.2 mph - N/A   Clear